Flag for Canada Weather past 2 weeks in Wood Buffalo, Alberta, Canada

Now
65 °F

Mild.


Feels Like: 65 °F
Forecast: 62 / 77 °F
Wind: 9 mph from Southeast

Location: Fort McMurray CS

Current Time: Jul 24, 2014 at 10:21:58 AM

Latest Report: Jul 24, 2014 at 9:00 AM


Visibility: N/A

Pressure: 29.64 "Hg

Humidity: 89%

Dew point: 62 °F

Location of Wood BuffaloLocation

Historic Weather in Wood Buffalo — Graph

°F

Wood Buffalo temperature yesterday

Maximum temperature yesterday: 75 °F (at 2:00 PM)
Minimum temperature yesterday: 56 °F (at 5:00 AM)
Average temperature yesterday: 66 °F

Past Weeks' High & Low Weather Summary

 TemperatureHumidityPressure
High88 °F (Jul 14, 5:00 PM)98% (Jul 21, 6:00 AM)30.26 "Hg (Jul 21, 6:00 AM)
Low42 °F (Jul 21, 6:00 AM)23% (Jul 13, 5:00 PM)29.33 "Hg (Jul 19, 1:00 PM)
Average64 °F65%29.82 "Hg
* Reported Jul 9 9:00 AM — Jul 24 9:00 AM, Wood Buffalo, Weather by CustomWeather, © 2014

Note: Actual official high and low records may vary slightly from our data, if they occured in-between our weather recording intervals... More about our weather records

Advertising

Wood Buffalo weather history for previous 24 hours

 ConditionsComfort  
Time TempWeatherWind HumidityBarometerVisibility
9:00 AM
Jul 24
65 °FMild.9 mph89%29.64 "HgN/A
8:00 AM65 °FMild.9 mph90%29.66 "HgN/A
7:00 AM63 °FMild.8 mph92%29.68 "HgN/A
6:00 AM62 °FCool.8 mph93%29.69 "HgN/A
5:00 AM61 °FCool.7 mph93%29.69 "HgN/A
4:00 AM61 °FCool.8 mph93%29.72 "HgN/A
3:00 AM61 °FCool.8 mph92%29.72 "HgN/A
2:00 AM62 °FCool.6 mph94%29.73 "HgN/A
1:00 AM65 °FMild.5 mph88%29.75 "HgN/A
12:00 AM65 °FMild.6 mph89%29.76 "HgN/A
11:00 PM
Jul 23
65 °FMild.8 mph89%29.76 "HgN/A
10:00 PM65 °FMild.7 mph89%29.76 "HgN/A
9:00 PM66 °FMild.1 mph84%29.79 "HgN/A
8:00 PM66 °FMild.12 mph85%29.80 "HgN/A
7:00 PM71 °FMild.7 mph73%29.82 "HgN/A
6:00 PM72 °FMild.9 mph72%29.84 "HgN/A
5:00 PM71 °FMild.13 mph70%29.87 "HgN/A
4:00 PM68 °FMild.13 mph75%29.92 "HgN/A
3:00 PM74 °FMild.15 mph61%29.92 "HgN/A
2:00 PM75 °FMild.13 mph57%29.94 "HgN/A
1:00 PM73 °FMild.10 mph62%29.96 "HgN/A
12:00 PM71 °FMild.5 mph65%29.98 "HgN/A
11:00 AM72 °FMild.10 mph60%30.00 "HgN/A
10:00 AM71 °FMild.8 mph61%30.01 "HgN/A
Weather by CustomWeather, © 2014

See weather overviewHow to use our weather pages